Weather History for KTRI - January, 2002

Change the Weather History Date:

Wednesday, January 2, 2002

  Actual Average Record
Temperature  
Mean Temperature 26 °F 35 °F  
Max Temperature 35 °F 45 °F 73 °F (1947)
Min Temperature 16 °F 25 °F 9 °F (1977)
Degree Days  
Heating Degree Days 40 30  
Month to date heating degree days 60  
Since 1 July heating degree days 1789  
Cooling Degree Days 0 0  
Month to date cooling degree days 0  
Year to date cooling degree days 0  
Moisture  
Dew Point 16 °F    
Average Humidity 69    
Maximum Humidity 96    
Minimum Humidity 44    
Precipitation  
Precipitation 0.00 in 0.10 in 0.89 in (1996)
Month to date precipitation 0.20  
Year to date precipitation 0.20  
Snow  
Snow 0.00 in 0.20 in - ()
Month to date snowfall 0.3  
Since 1 July snowfall 3.0  
Snow Depth -    
Sea Level Pressure  
Sea Level Pressure 30.25 in    
Wind  
Wind Speed 1 mph (ENE)    
Max Wind Speed 5 mph    
Max Gust Speed -    
Visibility 10 miles    
Events      
T = Trace of Precipitation, MM = Missing Value Source: NWS Daily Summary

Daily Weather History Graph

Daily Weather History Graph

Search for Another Location

Airport or City:

Trip Planner

Search our weather history database for the weather conditions in past years. The results will help you decide how hot, cold, wet, or windy it might be!

Date:

Astronomy

Jan. 02, 2002 Rise Set
Actual Time 7:41 AM EST 5:25 PM EST
Civil Twilight 7:13 AM EST 5:54 PM EST
Nautical Twilight 6:40 AM EST 6:26 PM EST
Astronomical Twilight 6:09 AM EST 6:58 PM EST
Moon 9:14 PM EST (1/2) 10:29 AM EST (1/2)
Length of Visible Light 10h 41m
Length of Day
9h 44m
Waning Gibbous, 86% of the Moon is Illuminated
Jan 2
Waning Gibbous
Jan 5
Last Quarter
Jan 13
New
Jan 21
First Quarter
Jan 28
Full

Hourly Weather History & Observations

Time (EST) Temp. Windchill Dew Point Humidity Pressure Visibility Wind Dir Wind Speed Gust Speed Precip Events Conditions
12:53 AM 19.0 °F - 10.9 °F 71% 30.32 in 10.0 mi Calm Calm - N/A   Clear
1:53 AM 17.1 °F - 12.9 °F 84% 30.31 in 10.0 mi Calm Calm - N/A   Clear
2:53 AM 18.0 °F - 12.9 °F 81% 30.34 in 10.0 mi Calm Calm - N/A   Clear
3:53 AM 16.0 °F 10.4 °F 14.0 °F 92% 30.31 in 10.0 mi ENE 3.5 mph - N/A   Clear
4:53 AM 17.1 °F - 15.1 °F 92% 30.34 in 10.0 mi Calm Calm - N/A   Clear
5:53 AM 19.0 °F - 12.9 °F 77% 30.33 in 10.0 mi Calm Calm - N/A   Clear
6:53 AM 18.0 °F - 17.1 °F 96% 30.35 in 10.0 mi Calm Calm - N/A   Clear
7:53 AM 19.0 °F - 15.1 °F 85% 30.33 in 10.0 mi Calm Calm - N/A   Clear
8:53 AM 21.0 °F 14.6 °F 16.0 °F 81% 30.35 in 10.0 mi NE 4.6 mph - N/A   Clear
9:53 AM 21.9 °F 17.2 °F 15.1 °F 75% 30.34 in 10.0 mi ENE 3.5 mph - N/A   Clear
10:53 AM 25.0 °F 19.3 °F 17.1 °F 72% 30.32 in 10.0 mi ESE 4.6 mph - N/A   Scattered Clouds
11:53 AM 27.0 °F 23.0 °F 17.1 °F 66% 30.29 in 10.0 mi East 3.5 mph - N/A   Mostly Cloudy
12:53 PM 33.1 °F 28.7 °F 16.0 °F 50% 30.24 in 10.0 mi Variable 4.6 mph - N/A   Mostly Cloudy
1:53 PM 34.0 °F 29.8 °F 15.1 °F 46% 30.21 in 10.0 mi East 4.6 mph - N/A   Clear
2:53 PM 35.1 °F - 16.0 °F 46% 30.22 in 10.0 mi Calm Calm - N/A   Mostly Cloudy
3:53 PM 35.1 °F - 15.1 °F 44% 30.21 in 10.0 mi Calm Calm - N/A   Overcast
4:53 PM 35.1 °F - 15.1 °F 44% 30.20 in 10.0 mi Calm Calm - N/A   Overcast
5:53 PM 34.0 °F - 18.0 °F 52% 30.19 in 10.0 mi Calm Calm - N/A   Overcast
6:53 PM 30.9 °F - 19.9 °F 64% 30.17 in 10.0 mi Calm Calm - N/A   Overcast
7:53 PM 28.0 °F 24.2 °F 19.9 °F 72% 30.17 in 10.0 mi North 3.5 mph - N/A   Overcast
8:53 PM 28.0 °F - 19.9 °F 72% 30.16 in 10.0 mi Calm Calm - N/A   Overcast
9:53 PM 28.0 °F - 19.9 °F 72% 30.14 in 10.0 mi Calm Calm - N/A   Mostly Cloudy
10:53 PM 28.9 °F - 18.0 °F 64% 30.12 in 10.0 mi Calm Calm - N/A   Overcast
11:53 PM 30.0 °F - 19.9 °F 66% 30.11 in 10.0 mi Calm Calm - N/A   Overcast